Regional Weather Roundup
Issued by NWS

Home | Current Version | Previous Version | Graphics & Text | Print | Product List | Glossary On
Versions: 1 2 3 4 5 6 7 8 9 10 11 12 13 14 15 16 17 18 19 20 21 22 23 24 25 26 27 28 29 30 31 32 33 34 35 36 37 38 39 40 41 42 43 44 45 46 47 48 49 50
000
ASUS43 KMPX 011710
RWRMN
WEATHER ROUNDUP FOR MINNESOTA
NATIONAL WEATHER SERVICE TWIN CITIES/CHANHASSEN MN
1200 PM CDT WED APR 01 2015


NOTE: "FAIR" INDICATES FEW OR NO CLOUDS BELOW 12,000 FEET WITH NO
SIGNIFICANT WEATHER AND/OR OBSTRUCTIONS TO VISIBILITY. N/A MEANS
CURRENT SKY AND/OR WEATHER CONDITIONS ARE NOT AVAILABLE.

MNZ060>063-068>070-011800-
   Twin Cities Metro

CITY           SKY/WX    TMP DP  RH WIND       PRES   REMARKS
TWIN CITIES    PTSUNNY   70  36  28 S18G26    29.67F
ST PAUL        MOSUNNY   69  36  29 S21G30    29.68F
CRYSTAL        PTSUNNY   71  34  25 S17G36    29.62F
BLAINE         CLOUDY    70  36  28 S15G23    29.65F
LAKEVILLE      MOSUNNY   66  39  37 S16G28    29.68F
EDEN PRAIRIE   PTSUNNY   70  36  28 S22G38    29.63F
SOUTH ST PAUL  PTSUNNY   70  36  29 S15       29.68F
LAKE ELMO      FAIR      68  39  34 S22G28    29.70F
$$
MNZ001>005-007-008-013>017-022>024-027-028-011800-
   Northwest Minnesota

CITY           SKY/WX    TMP DP  RH WIND       PRES   REMARKS
BEMIDJI        MOSUNNY   57  34  41 SE13G18   29.46F
HALLOCK        PTSUNNY   61  43  51 MISG      29.35F
ROSEAU         SUNNY     55  37  50 SE16      29.41F
WARROAD        MOSUNNY   54  39  58 SE13      29.45F
THIEF RVR FALL PTSUNNY   57  37  47 SE14      29.39F
CROOKSTON      CLOUDY    63  36  36 S22       29.39F
FOSSTON        CLOUDY    61  36  39 S22G28    29.43S
DETROIT LAKES  CLOUDY    61  36  39 S15G24    29.44S
MOORHEAD       CLOUDY    64  36  34 S18       29.40F
PARK RAPIDS    CLOUDY    60  34  37 S16G24    29.48F
MAHNOMEN       FAIR      62  37  38 S17G25    29.42F
$$
MNZ006-009>011-018-025>026-011800-
   North Central Minnesota

CITY           SKY/WX    TMP DP  RH WIND       PRES   REMARKS
BAUDETTE       MOSUNNY   55  35  47 SE15      29.46F
FLAG ISLAND    PTSUNNY   45  30  57 SE9       29.47F
INTL FALLS     PTSUNNY   54  32  43 SE14G22   29.53F
WASKISH        SUNNY     59  37  44 SE13G18   29.47F
BIG FORK       MOSUNNY   55  34  44 SE16G23   29.53F
LONGVILLE      PTSUNNY   55  34  44 SE14G20   29.52F
GRAND RAPIDS   MOSUNNY   54  34  47 S16G24    29.56F
CRANE LAKE     MOSUNNY   52  28  40 S7G20     29.61F
ORR            MOSUNNY   52  28  40 SE14G23   29.55F
COOK           MOSUNNY   52  34  50 SE14G24   29.60F
WALKER         FAIR      56  33  40 S16G22    29.49F
$$
MNZ012-019>021-037-011800-
   Northeast Minnesota

CITY           SKY/WX    TMP DP  RH WIND       PRES   REMARKS
DULUTH         PTSUNNY   42  32  67 E20       29.67F
ELY            MOSUNNY   48  30  49 SE16G26   29.65F
EVELETH        PTSUNNY   50  32  50 S18       29.64F
DULUTH HARBOR  PTSUNNY   36  32  87 NE22      29.73F
TWO HARBORS    MOSUNNY   43  34  70 E13G20    29.71F
SILVER BAY     PTSUNNY   37  32  81 NE15G22   29.74F
GRAND MARAIS     N/A     32  30  92 NE17G25   29.85F WCI  21
G MARAIS ARPRT PTSUNNY   30  27  86 E7        29.79F WCI  23
$$
MNZ029>031-032-039>041-046>048-054>057-064-011800-
   West Central Minnesota

CITY           SKY/WX    TMP DP  RH WIND       PRES   REMARKS
FERGUS FALLS   CLOUDY    66  36  32 S18G24    29.45F
WHEATON        CLOUDY    64  41  42 S17G31    29.42F
MORRIS         CLOUDY    70  45  40 S22G28    29.44F
ALEXANDRIA     CLOUDY    64  38  38 S24G32    29.48F
ELBOW LAKE     FAIR      63  41  44 S18       29.45R
WADENA         CLOUDY    63  39  42 S16G25    29.46F
GLENWOOD       CLOUDY    66  39  37 S25G32    29.50F
APPLETON       CLOUDY    73  39  29 SW18G26   29.45F
BENSON         CLOUDY    66  37  34 SW6       29.51S
ORTONVILLE     CLOUDY    70  41  35 SW25G35   29.43F
MADISON        CLOUDY    73  39  29 SW36G43   29.44F
WILLMAR        FAIR      70  34  26 S7        29.53F
$$
MNZ033>034-036-042>043-049>051-058-059-011800-
   Central Minnesota

CITY           SKY/WX    TMP DP  RH WIND       PRES   REMARKS
ST CLOUD       CLOUDY    65  35  33 S22G31    29.56F
SAUK CENTRE    FAIR      66  38  35 S24G39    29.50F
PAYNESVILLE    CLOUDY    64  35  34 SE21G33   29.54F
AITKIN         PTSUNNY   61  34  36 SE15      29.55F
PINE RIVER     CLOUDY    55  37  50 SE10      29.56F
BRAINERD       CLOUDY    60  34  37 S14G24    29.54F
STAPLES        CLOUDY    63  34  34 S14       29.50F
LONG PRAIRIE   FAIR      64  37  36 S22G33    29.51F
LITTLE FALLS   CLOUDY    64  32  29 S16G24    29.54F
LITCHFIELD     CLOUDY    70  36  28 CALM      29.57F
BUFFALO        CLOUDY    66  34  30 S18G28    29.61F
MAPLE LAKE     CLOUDY    69  40  34 S13G25    29.59F
$$
MNZ037-044-045-052-053-011800-
   East Central Minnesota

CITY           SKY/WX    TMP DP  RH WIND       PRES   REMARKS
PRINCETON      CLOUDY    66  36  32 SE17G25   29.60F
MORA           PTSUNNY   59  34  38 S10G16    29.63F
CAMBRIDGE      PTSUNNY   66  45  45 SE12G24   29.61F
RUSH CITY      PTSUNNY   60  35  38 SE13G21   29.65F
MOOSE LAKE     PTSUNNY   57  32  38 SE7       29.61F
HINCKLEY       FAIR      59  36  41 S15G21    29.65F
CLOQUET        PTSUNNY   43  32  65 SE12G17   29.66F
MCGREGOR       PTSUNNY   55  34  44 S15G22    29.59F
$$
MNZ071>073-080-081-089-090-097-098-011800-
   Southwest Minnesota

CITY           SKY/WX    TMP DP  RH WIND       PRES   REMARKS
MONTEVIDEO     CLOUDY    70  39  32 SW16G26   29.47F HAZE
GRANITE FALLS  CLOUDY    71  39  31 S36G46    29.51F HAZE
CANBY          PTSUNNY   71  38  30 S24G37    29.49S
MARSHALL       CLOUDY    73  39  29 SW38G51   29.52F
REDWOOD FALLS  CLOUDY    73  35  25 S39G48    29.53F HAZE
OLIVIA         CLOUDY    70  37  30 S23G31    29.54F
PIPESTONE      CLOUDY    70  39  32 SW31G37   29.58F
WINDOM         MOSUNNY   75  30  19 S23G44    29.61F
WORTHINGTON    MOSUNNY   73  41  31 S31G41    29.63F
JACKSON        SUNNY     75  27  16 S31G39    29.66F
TRACY          PTSUNNY   74  40  30 S32G43    29.56F
SLAYTON        PTSUNNY   70  33  25 S40G48    29.58F
$$
MNZ065>067-074>077-082>085-091>093-011800-
   South Central Minnesota

CITY           SKY/WX    TMP DP  RH WIND       PRES   REMARKS
MANKATO        MOSUNNY   73  36  25 S29G37    29.66F
NEW ULM        CLOUDY    73  30  20 S23G33    29.60F
ST JAMES       PTSUNNY   75  25  15 S39G49    29.62F
FAIRMONT       MOSUNNY   75  28  17 S36G41    29.65F
GLENCOE        PTSUNNY   72  42  33 S21G33    29.61F
FARIBAULT      MOSUNNY   70  37  30 S18G33    29.71F
OWATONNA       MOSUNNY   70  37  30 S17G31    29.71F
WASECA         SUNNY     70  39  32 S25G37    29.72F
ALBERT LEA     SUNNY     72  34  25 S20G29    29.73F
$$
MNZ078>079-086>088-094>096-011800-
   Southeast Minnesota

CITY           SKY/WX    TMP DP  RH WIND       PRES   REMARKS
ROCHESTER      SUNNY     64  41  42 S28G38    29.76F
RED WING       SUNNY     72  36  26 S10G16    29.72F
STANTON        SUNNY     67  39  36 S22G30    29.69F
DODGE CENTER   SUNNY     66  45  45 S23G31    29.74F
WINONA         SUNNY     70  36  28 S9G18     29.78F
AUSTIN         SUNNY     66  41  39 S18       29.76F
PRESTON        SUNNY     66  37  34 S25G32    29.78F
$$
ABBREVIATIONS USED IN REMARKS
   TC - TEMPERATURES IN CELSIUS
  WCI - WIND CHILL INDEX
   HX - HEAT INDEX
  VSB - VISIBILITY
$$


USA.gov is the U.S. government's official web portal to all federal, state and local government web resources and services.